Location: Helion Bumpstead
(52.0500°N, 0.4000°E)
Time: 07:41:29
(UTC+00:00)

NOSS 2-2 (C) - Pass Details

Date: 15 November 2025
Orbit: 381 x 1696 km, 63.3° (Epoch: 14 December)

Event Time Altitude Azimuth Distance (km) Brightness Sun altitude
Exits shadow 06:27:33 10° 299° (WNW) 1,765 5.2 -8.0°
Maximum altitude 06:31:09 36° 232° (SW) 997 4.4 -7.4°
Drops below altitude 10° 06:35:55 10° 167° (SSE) 2,358 7.1 -6.8°
Sets 06:38:57 0° 160° (SSE) 3,530 8.1 -6.3°
